DW5244 Weather Reports


time (UTC)temp
C
wind
direction
speed
KPH
gust
KPH
rain 1hr
cm
rain 24hr
cm
rain mn
cm
humidity
%
barometer
mb
20260507193030 30 14 6.4 19.3 0.00 0.00 0.00 28 1014.6
20260507191529 31 161 4.8 17.7 0.00 0.00 0.00 26 1014.8
20260507190027 30 36 3.2 17.7 0.00 0.00 0.00 29 1014.9
20260507184523 28 198 14.5 27.4 0.00 0.00 0.00 32 1015.3
20260507183020 30 165 8.0 19.3 0.00 0.00 0.00 31 1015.6
20260507181524 27 311 3.2 20.9 0.00 0.00 0.00 35 1016.1
20260507180022 28 110 14.5 24.1 0.00 0.00 0.00 31 1016.5
20260507174514 27 106 8.0 20.9 0.00 0.00 0.00 32 1016.6
20260507173019 27 12 8.0 16.1 0.00 0.00 0.00 32 1016.9
20260507171509 26 117 8.0 20.9 0.00 0.00 0.00 31 1017.3
20260507170004 26 145 9.7 19.3 0.00 0.00 0.00 31 1017.6
20260507164604 25 360 12.9 24.1 0.00 0.00 0.00 32 1017.8
20260507163055 25 346 14.5 25.7 0.00 0.00 0.00 31 1017.9
20260507161551 25 350 14.5 25.7 0.00 0.00 0.00 30 1018.1
20260507160047 24 343 8.0 20.9 0.00 0.00 0.00 30 1018.3
20260507154550 23 360 12.9 27.4 0.00 0.00 0.00 29 1018.2
20260507153037 23 360 24.1 33.8 0.00 0.00 0.00 26 1018.1
20260507151534 22 360 16.1 29.0 0.00 0.00 0.00 27 1017.9
20260507150030 21 350 19.3 37.0 0.00 0.00 0.00 28 1017.9
20260507144529 21 360 24.1 32.2 0.00 0.00 0.00 27 1017.9
20260507143027 20 360 27.4 35.4 0.00 0.00 0.00 27 1018.1
20260507141515 20 360 20.9 32.2 0.00 0.00 0.00 28 1018.1
20260507140010 20 360 29.0 38.6 0.00 0.00 0.00 29 1018.0
20260507134510 20 345 25.7 35.4 0.00 0.00 0.00 28 1017.9
20260507133002 18 9 24.1 35.4 0.00 0.00 0.00 30 1017.8
20260507131600 18 355 22.5 29.0 0.00 0.00 0.00 33 1017.7
20260507130108 17 360 25.7 30.6 0.00 0.00 0.00 36 1017.4
20260507124552 17 327 20.9 30.6 0.00 0.00 0.00 38 1017.2
20260507123052 17 11 16.1 27.4 0.00 0.00 0.00 37 1017.3
20260507121601 17 340 17.7 27.4 0.00 0.00 0.00 37 1017.0
20260507120054 18 360 19.3 25.7 0.00 0.00 0.00 37 1016.9
20260507114621 18 360 20.9 27.4 0.00 0.00 0.00 37 1016.7
20260507113039 18 360 20.9 24.1 0.00 0.00 0.00 38 1016.8
20260507111537 18 339 16.1 20.9 0.00 0.00 0.00 38 1016.8
20260507110036 18 346 16.1 24.1 0.00 0.00 0.00 37 1016.7
20260507104534 18 360 17.7 27.4 0.00 0.00 0.00 37 1016.9
20260507103033 18 360 19.3 24.1 0.00 0.00 0.00 38 1016.7
20260507101532 18 360 20.9 27.4 0.00 0.00 0.00 37 1016.6
20260507100034 18 360 17.7 24.1 0.00 0.00 0.00 39 1016.6
20260507094530 18 360 16.1 22.5 0.00 0.00 0.00 38 1016.4
20260507093029 18 360 17.7 22.5 0.00 0.00 0.00 38 1016.3
20260507091531 18 360 22.5 29.0 0.00 0.00 0.00 33 1016.3
20260507090035 18 360 17.7 24.1 0.00 0.00 0.00 33 1016.5
20260507084527 18 360 22.5 27.4 0.00 0.00 0.00 31 1016.4
20260507083029 18 360 16.1 25.7 0.00 0.00 0.00 31 1016.6
20260507081522 18 360 20.9 25.7 0.00 0.00 0.00 29 1016.5
20260507080024 18 360 22.5 29.0 0.00 0.00 0.00 29 1016.6
20260507074520 18 360 20.9 27.4 0.00 0.00 0.00 28 1016.7
20260507073017 18 360 17.7 27.4 0.00 0.00 0.00 28 1016.8
20260507071515 19 360 16.1 24.1 0.00 0.00 0.00 28 1016.6
20260507070014 19 360 20.9 32.2 0.00 0.00 0.00 28 1016.5
20260507064510 19 360 9.7 22.5 0.00 0.00 0.00 28 1016.6
20260507063007 20 360 11.3 20.9 0.00 0.00 0.00 27 1016.5
20260507061506 20 360 11.3 20.9 0.00 0.00 0.00 26 1016.5
20260507060005 20 360 16.1 19.3 0.00 0.00 0.00 26 1016.2
20260507054508 20 360 12.9 17.7 0.00 0.00 0.00 27 1016.2
20260507053121 20 360 16.1 24.1 0.00 0.00 0.00 26 1016.1
20260507051604 20 360 17.7 25.7 0.00 0.00 0.00 25 1015.7
20260507050054 20 360 19.3 27.4 0.00 0.00 0.00 25 1015.7
20260507044553 21 360 16.1 24.1 0.00 0.00 0.00 24 1015.6
20260507043052 21 360 8.0 19.3 0.00 0.00 0.00 24 1015.5
20260507041553 21 360 6.4 12.9 0.00 0.00 0.00 24 1015.4
20260507040055 21 360 6.4 16.1 0.00 0.00 0.00 24 1015.4
20260507034555 20 360 8.0 16.1 0.00 0.00 0.00 26 1015.2
20260507033055 20 360 8.0 14.5 0.00 0.00 0.00 26 1015.0
20260507031549 21 360 3.2 9.7 0.00 0.00 0.00 25 1014.9
20260507030049 21 360 3.2 6.4 0.00 0.00 0.00 24 1014.7
20260507024600 22 360 3.2 6.4 0.00 0.00 0.00 23 1014.4
20260507023050 23 240 4.8 8.0 0.00 0.00 0.00 21 1014.3
20260507021548 24 193 4.8 8.0 0.00 0.00 0.00 20 1014.1
20260507020106 24 238 1.6 3.2 0.00 0.00 0.00 19 1014.0
20260507014552 25 230 1.6 8.0 0.00 0.00 0.00 18 1013.8
20260507013052 26 167 4.8 12.9 0.00 0.00 0.00 17 1013.6
20260507011545 26 257 11.3 17.7 0.00 0.00 0.00 16 1013.4
20260507010048 27 269 4.8 11.3 0.00 0.00 0.00 15 1013.3
20260507004553 27 257 1.6 6.4 0.00 0.00 0.00 17 1013.1
20260507003048 28 335 3.2 8.0 0.00 0.00 0.00 15 1012.9
20260507001546 28 207 3.2 8.0 0.00 0.00 0.00 18 1012.9
20260507000041 28 161 1.6 8.0 0.00 0.00 0.00 17 1012.8
20260506234547 27 223 1.6 8.0 0.00 0.00 0.00 18 1012.8
20260506233051 28 263 11.3 17.7 0.00 0.00 0.00 16 1012.8
20260506231539 28 265 9.7 16.1 0.00 0.00 0.00 15 1012.8
20260506230046 28 299 0.0 6.4 0.00 0.00 0.00 17 1012.9
20260506224537 28 174 4.8 9.7 0.00 0.00 0.00 15 1013.0
20260506223042 28 53 6.4 19.3 0.00 0.00 0.00 17 1013.0
20260506221535 28 227 8.0 14.5 0.00 0.00 0.00 15 1013.2
20260506220035 27 230 1.6 17.7 0.00 0.00 0.00 17 1013.1
20260506214540 28 247 6.4 16.1 0.00 0.00 0.00 16 1013.3
20260506213040 27 281 3.2 16.1 0.00 0.00 0.00 17 1013.4
20260506211533 27 294 3.2 11.3 0.00 0.00 0.00 17 1013.6
20260506210033 27 240 4.8 22.5 0.00 0.00 0.00 16 1013.9
20260506204532 27 293 8.0 20.9 0.00 0.00 0.00 16 1014.1
20260506203033 28 278 9.7 16.1 0.00 0.00 0.00 16 1014.2
20260506201531 27 209 3.2 16.1 0.00 0.00 0.00 16 1014.3
20260506200030 27 258 11.3 27.4 0.00 0.00 0.00 15 1014.4
20260506194530 28 227 9.7 24.1 0.00 0.00 0.00 17 1014.3